{"data":{"norad_id":66186,"epoch":"2026-09-19T18:22:09.524928Z","epoch_age_seconds":163841,"freshness":"FRESH","line1":"1 66186U 25243K   26262.76538802  .00022250  00000+0  66767-3 0  9995","line2":"2 66186  53.1597  61.2419 0001758  64.8700 295.2485 15.34400913 50402","mean_motion":15.34400913,"eccentricity":0.0001758,"inclination_deg":53.1597,"raan_deg":61.2419,"arg_perigee_deg":64.87,"mean_anomaly_deg":295.2485,"bstar":0.00066767,"rev_number":5040,"period_min":93.847702239995,"perigee_km":461.49790734287,"apogee_km":463.90314581722,"semimajor_km":6840.83752658,"source":"CELESTRAK","updated_at":"2026-09-21T09:00:35.835161Z"}}